{"data":{"norad_id":68020,"epoch":"2026-05-24T19:06:51.093216Z","epoch_age_seconds":88640,"freshness":"FRESH","line1":"1 68020U 26040F   26144.79642469  .00028194  00000+0  87199-3 0  9992","line2":"2 68020  97.2856  93.7751 0002618  83.8064 276.3477 15.33457305 13122","mean_motion":15.33457305,"eccentricity":0.0002618,"inclination_deg":97.2856,"raan_deg":93.7751,"arg_perigee_deg":83.8064,"mean_anomaly_deg":276.3477,"bstar":0.00087199,"rev_number":1312,"period_min":93.905451120467,"perigee_km":463.71489781528,"apogee_km":467.29822958523,"semimajor_km":6843.6435637003,"source":"CELESTRAK","updated_at":"2026-05-25T13:38:21.805212Z"}}